Location: Unspecified
(0.0000°N, 0.0000°E)
Time: 11:15:24
(UTC+00:00)

Vanguard 2 Rocket - Pass Details

Date: 24 November 2019
Orbit: 554 x 3326 km, 32.9° (Epoch: 13 December)

Event Time Altitude Azimuth Distance (km) Brightness Sun altitude
Rises 18:12:07 0° 230° (SW) 6,477 12.9 -5.9°
Reaches altitude 10° 18:17:07 10° 228° (SW) 5,057 12.0 -7.1°
Maximum altitude 18:30:11 65° 148° (SSE) 1,670 8.2 -10.2°
Enters shadow 18:36:33 15° 69° (ENE) 2,647 8.6 -11.7°
Drops below altitude 10° 18:37:19 10° 68° (ENE) 2,887 - -11.8°
Sets 18:39:26 0° 64° (ENE) 3,599 - -12.3°
